Regional Weather Roundup
Issued by NWS

Home | Current Version | Previous Version | Graphics & Text | Print | Product List | Glossary On
Versions: 1 2 3 4 5 6 7 8 9 10 11 12 13 14 15 16 17 18 19 20 21 22 23 24 25 26 27 28 29 30 31 32 33 34 35 36 37 38 39 40 41 42 43 44 45 46 47 48 49 50
500
ASUS43 KMPX 291401
RWRMN
WEATHER ROUNDUP FOR MINNESOTA
NATIONAL WEATHER SERVICE TWIN CITIES/CHANHASSEN MN
900 AM CDT THU JUN 29 2017


NOTE: "FAIR" INDICATES FEW OR NO CLOUDS BELOW 12,000 FEET WITH NO
SIGNIFICANT WEATHER AND/OR OBSTRUCTIONS TO VISIBILITY. N/A MEANS
CURRENT SKY AND/OR WEATHER CONDITIONS ARE NOT AVAILABLE.

MNZ060>063-068>070-291500-
   Twin Cities Metro

CITY           SKY/WX    TMP DP  RH WIND       PRES   REMARKS
TWIN CITIES    CLOUDY    67  58  72 NW13      29.73S
ST PAUL        CLOUDY    67  60  78 NW10      29.73S
CRYSTAL        CLOUDY    66  56  70 NW10G17   29.72R
BLAINE         CLOUDY    66  61  82 W12       29.73R
LAKEVILLE      CLOUDY    64  59  82 W6        29.75R
EDEN PRAIRIE   CLOUDY    67  59  75 W9        29.73F
SOUTH ST PAUL  CLOUDY    67  58  74 W9        29.73S
LAKE ELMO      CLOUDY    66  59  77 W12G17    29.74S
$$
MNZ001>005-007-008-013>017-022>024-027-028-291500-
   Northwest Minnesota

CITY           SKY/WX    TMP DP  RH WIND       PRES   REMARKS
BEMIDJI        PTSUNNY   62  58  87 NW8       29.76R
HALLOCK        CLOUDY    63  61  94 CALM      29.77R
ROSEAU         MOSUNNY   63  57  82 CALM      29.77R
WARROAD        SUNNY     63  59  88 N5        29.76S
THIEF RVR FALL PTSUNNY   63  61  94 W6        29.80R
CROOKSTON      CLOUDY    61  59  94 CALM      29.81R
FOSSTON        CLOUDY    61  61 100 W6        29.80R
DETROIT LAKES  PTSUNNY   61  59  94 NW6       29.81R
MOORHEAD       CLOUDY    63  57  82 N5        29.80S
PARK RAPIDS    CLOUDY    64  56  75 NW8       29.77R
MAHNOMEN       CLOUDY    62  58  88 NW5       29.80R
$$
MNZ006-009>011-018-025>026-291500-
   North Central Minnesota

CITY           SKY/WX    TMP DP  RH WIND       PRES   REMARKS
BAUDETTE       SUNNY     66  60  81 N10       29.73S
FLAG ISLAND    SUNNY     64  57  77 NE5       29.75R
INTL FALLS     CLOUDY    62  57  83 N7        29.72R
WASKISH        MOSUNNY   63  61  94 NW5       29.74R
BIG FORK       CLOUDY    61  57  88 N5        29.71R
LONGVILLE      CLOUDY    63  57  82 N7        29.73F
GRAND RAPIDS   CLOUDY    61  58  90 NW8       29.74R
CRANE LAKE     CLOUDY    57  57 100 N5        29.70R
ORR            CLOUDY    59  55  88 CALM      29.67S
COOK           CLOUDY    59  57  94 N3        29.69R
WALKER         CLOUDY    62  57  84 NW8       29.74F
$$
MNZ012-019>021-037-291500-
   Northeast Minnesota

CITY           SKY/WX    TMP DP  RH WIND       PRES   REMARKS
DULUTH         CLOUDY    59  59 100 NW10      29.65R
ELY            CLOUDY    57  57 100 N5        29.66R
HIBBING        CLOUDY    59  58  96 NW9       29.68R
EVELETH        CLOUDY    60  56  87 N6        29.67S
DULUTH HARBOR  PTSUNNY   63  61  94 NW7       29.65R
TWO HARBORS    CLOUDY    64  59  82 CALM      29.62R
SILVER BAY     CLOUDY    61  59  94 CALM      29.62R
GRAND MARAIS     N/A     63  58  83 NE9       29.58R
G MARAIS ARPRT CLOUDY    55  52  88 N12       29.63R FOG
$$
MNZ029>031-032-039>041-046>048-054>057-064-291500-
   West Central Minnesota

CITY           SKY/WX    TMP DP  RH WIND       PRES   REMARKS
FERGUS FALLS   CLOUDY    63  61  94 N7        29.77F
WHEATON        CLOUDY    63  57  82 N10       29.78F
MORRIS         CLOUDY    64  59  82 N9        29.77F HAZE
ALEXANDRIA     CLOUDY    64  59  83 N7        29.79S
ELBOW LAKE     CLOUDY    62  59  91 W9        29.79F
WADENA         CLOUDY    63  57  82 NW7       29.79R
GLENWOOD       PTSUNNY   63  57  82 N8        29.79F
APPLETON       CLOUDY    66  57  72 N12       29.76F
BENSON         CLOUDY    66  59  77 N7        29.79S
ORTONVILLE     PTSUNNY   64  57  77 NW8       29.79R
MADISON        PTSUNNY   68  61  77 N9        29.77F
WILLMAR        CLOUDY    64  61  88 NW9       29.78F
$$
MNZ033>034-036-042>043-049>051-058-059-291500-
   Central Minnesota

CITY           SKY/WX    TMP DP  RH WIND       PRES   REMARKS
ST CLOUD       CLOUDY    64  59  83 NW10      29.75R
SAUK CENTRE    CLOUDY    62  58  87 NW7       29.78F
PAYNESVILLE    CLOUDY    64  64 100 N6        29.77F
AITKIN         CLOUDY    61  57  88 W3        29.71R
PINE RIVER     CLOUDY    63  57  82 MISG      29.78R
BRAINERD       CLOUDY    64  59  83 NW10      29.74R
STAPLES        CLOUDY    63  57  82 W9        29.77R
LONG PRAIRIE   CLOUDY    61  55  82 W5        29.79R
LITTLE FALLS   CLOUDY    63  55  77 NW6       29.77R
LITCHFIELD     CLOUDY    64  61  88 NW6       29.77S
BUFFALO        CLOUDY    65  58  78 NW9       29.76F
MAPLE LAKE     CLOUDY    65  61  85 W9        29.75F
HUTCHINSON     CLOUDY    64  61  90 W9        29.78R
$$
MNZ037-044-045-052-053-291500-
   East Central Minnesota

CITY           SKY/WX    TMP DP  RH WIND       PRES   REMARKS
PRINCETON      CLOUDY    64  61  88 NW7       29.75R
MORA           CLOUDY    61  55  82 NW7       29.74R
CAMBRIDGE      CLOUDY    64  57  77 W7        29.71S
RUSH CITY      CLOUDY    63  59  88 W5        29.72R
MOOSE LAKE     CLOUDY    61  55  82 NW6       29.68R
HINCKLEY       CLOUDY    63  59  88 W5        29.71R
CLOQUET        CLOUDY    61  55  82 NW12      29.67R
MCGREGOR       CLOUDY    61  59  94 NW7       29.72R
$$
MNZ071>073-080-081-089-090-097-098-291500-
   Southwest Minnesota

CITY           SKY/WX    TMP DP  RH WIND       PRES   REMARKS
MONTEVIDEO     CLOUDY    63  61  94 N8        29.77F
GRANITE FALLS  CLOUDY    65  61  88 N6        29.78F
CANBY          CLOUDY    65  59  82 CALM      29.80S
MARSHALL       CLOUDY    62  60  93 N9        29.79F
REDWOOD FALLS  CLOUDY    62  59  90 N7        29.76F
OLIVIA         CLOUDY    63  59  88 NW7       29.76F
PIPESTONE      CLOUDY    66  59  77 W3        29.81R
WINDOM         SUNNY     68  63  83 W6        29.79R
WORTHINGTON    MOSUNNY   68  62  81 NE5       29.81R
JACKSON        MOSUNNY   68  61  77 CALM      29.80R
TRACY          CLOUDY    64  62  93 NW5       29.80R
SLAYTON        MOSUNNY   65  61  87 W3        29.80S
$$
MNZ065>067-074>077-082>085-091>093-291500-
   South Central Minnesota

CITY           SKY/WX    TMP DP  RH WIND       PRES   REMARKS
MANKATO        PTSUNNY   66  61  84 W9        29.78S
NEW ULM        PTSUNNY   64  61  88 N6        29.78R
ST JAMES       PTSUNNY   66  63  88 W7        29.79R
FAIRMONT       MOSUNNY   68  63  84 NW8       29.78S
GLENCOE        CLOUDY    64  62  93 NW10      29.75F
FARIBAULT      CLOUDY    64  61  88 W7        29.77R
OWATONNA       MOSUNNY   66  61  82 W8        29.76F
WASECA         MOSUNNY   64  59  82 NW6       29.78F
ALBERT LEA     MOSUNNY   66  61  82 NW6       29.76F
$$
MNZ078>079-086>088-094>096-291500-
   Southeast Minnesota

CITY           SKY/WX    TMP DP  RH WIND       PRES   REMARKS
ROCHESTER      MOSUNNY   66  62  87 W10       29.77R
RED WING       CLOUDY    70  57  64 W16       29.73R
STANTON        PTSUNNY   68  60  75 W10       29.75R
DODGE CENTER   MOSUNNY   64  61  88 W12       29.76F
WINONA         PTSUNNY   70  61  73 NW14      29.72S
AUSTIN         MOSUNNY   66  61  82 NW10      29.76S
PRESTON        CLOUDY    66  60  80 NW10      29.76R
$$
ABBREVIATIONS USED IN REMARKS
   TC - TEMPERATURES IN CELSIUS
  WCI - WIND CHILL INDEX
   HX - HEAT INDEX
  VSB - VISIBILITY
$$




USA.gov is the U.S. government's official web portal to all federal, state and local government web resources and services.